Regional Weather Roundup
Issued by NWS

Home | Current Version | Previous Version | Graphics & Text | Print | Product List | Glossary Off
Versions: 1 2 3 4 5 6 7 8 9 10 11 12 13 14 15 16 17 18 19 20 21 22 23 24 25 26 27 28 29 30 31 32 33 34 35 36 37 38 39 40 41 42 43 44 45 46 47 48 49 50

000
ASUS43 KDTX 211101
RWRMI
MICHIGAN HOURLY REGIONAL WEATHER ROUNDUP
NATIONAL WEATHER SERVICE DETROIT/PONTIAC MI
700 AM EDT THU AUG 21 2014

NOTE: "FAIR" INDICATES FEW OR NO CLOUDS BELOW 12,000 FEET WITH NO
SIGNIFICANT WEATHER AND/OR OBSTRUCTION TO VISIBILITY.

MIZ047>049-052>055-059>063-066>070-074>076-081>083-211200-
SOUTHEAST LOWER MICHIGAN

CITY           SKY/WX    TMP DP  RH WIND       PRES   REMARKS
ADRIAN         CLEAR     65  64  97 W3        29.98R FOG
ALMA           FOG       58  57  97 CALM      29.97S VSB 1/2
ANN ARBOR      FOG       61  59  93 CALM      29.97R VSB 3/4
BAD AXE        CLOUDY    64  64 100 N5        29.97R
CARO           FOG       58  58 100 CALM      29.97S VSB<1/4
DETROIT CITY   CLEAR     67  62  84 CALM      29.96S
DETROIT        CLOUDY    67  63  87 CALM      29.97R
FLINT          CLEAR     63  59  87 N3        29.97S
GROSSE ILE     CLEAR     66  64  94 CALM      29.96R
HILLSDALE      PTCLDY    69  69 100 CALM      29.99R FOG
HOWELL         CLEAR     60  60  99 CALM      29.98R FOG

CITY           SKY/WX    TMP DP  RH WIND       PRES   REMARKS
JACKSON        PTCLDY    64  63  96 CALM      29.98R FOG
LAMBERTVILLE   CLEAR     64  63  94 CALM      29.98R FOG
LANSING        CLEAR     62  60  93 CALM      29.97R
LAPEER         FOG       59  58  96 CALM      29.98R VSB 1/4
MASON          FOG       58  58  97 CALM      29.98R VSB 1/2
MONROE         FOG       63  63 100 CALM      29.96R VSB 1/4
MT. CLEMENS    CLEAR     62  62  97 N2        29.96R
PONTIAC        PTCLDY    63  60  90 N3        29.96S
PORT HOPE        N/A     66  63  90 CALM      29.95S
PORT HURON     CLOUDY    61  61 100 N3        29.98S FOG
TRI CITIES     CLEAR     61  59  93 CALM      29.99R
TROY           CLEAR     65  62  90 CALM      29.98S
SAGINAW HB     CLEAR     59  59 100 CALM      29.98R FOG
$$
MIZ043>046-050>051-056>058-064>065-071>073-077>080-211200-
SOUTHWEST LOWER MICHIGAN

CITY           SKY/WX    TMP DP  RH WIND       PRES   REMARKS
BATTLE CREEK   PTCLDY    67  65  93 SW5       29.97R FOG
BENTON HARBOR  PTCLDY    68  66  93 S5        29.96R
BIG RAPIDS     FOG       56  56 100 CALM      29.98R VSB 1/2
COLDWATER      PTCLDY    69  68  96 SW6       29.97S FOG
FREMONT        FAIR      61  60  98 E5        29.96S
HOLLAND        PTCLDY    66  63  90 CALM      29.96R FOG
GRAND RAPIDS   MOCLDY    65  65 100 CALM      29.97R
IONIA          FAIR      60  60  97 CALM      29.96R FOG
KALAMAZOO      PTCLDY    69  67  93 SW6       29.97R FOG
LUDINGTON        N/A     55  55  97 CALM      29.96R FOG
MARSHALL       CLOUDY    67  66  98 CALM      29.97R FOG
MOUNT PLEASANT MOCLDY    58  57  98 CALM      29.97R FOG
MUSKEGON       MOCLDY    63  60  90 CALM      29.96R
SOUTH HAVEN    CLEAR     68  68  98 CALM      29.96R
$$
MIZ016>042-211200-
NORTHERN LOWER MICHIGAN

CITY           SKY/WX    TMP DP  RH WIND       PRES   REMARKS
ALPENA         CLOUDY    63  62  97 CALM      29.97R
BEAVER ISLAND  CLOUDY    62  61  97 CALM      29.98S FOG
BELLAIRE       CLOUDY    63  62  95 CALM      29.97S
CADILLAC       CLEAR     52  52 100 CALM      29.98S FOG
CHARLEVOIX     CLOUDY    64  64 100 CALM      30.00S
FRANKFORT      CLEAR     56  54  91 CALM      29.97R
GAYLORD        CLOUDY    60  60 100 W3        29.99R FOG
GRAYLING       CLOUDY    62  61  98 CALM      29.99S
HARBOR SPRINGS CLOUDY    63  62  96 CALM      29.98R
HOUGHTON LAKE  CLOUDY    61  59  93 N7        29.99R
MANISTEE       MOCLDY    55  52  88 SE5       29.98R
OSCODA         MOCLDY    61  60  96 NW3       29.96R
PELLSTON       CLOUDY    63  61  93 CALM      29.98R
ROGERS CITY    CLOUDY    62  62 100 CALM      29.99R FOG
TRAVERSE CITY  CLOUDY    63  59  87 CALM      29.97R
$$
MIZ007>008-015-211200-
EASTERN UPPER MICHIGAN

CITY           SKY/WX    TMP DP  RH WIND       PRES   REMARKS
KINROSS        CLOUDY    59  57  94 NW3       29.97S
MACKINAC ISLAN CLOUDY    59  59 100 NW3       29.98R
NEWBERRY       FOG       57  57 100 CALM      29.98R VSB<1/4
S. S. MARIE    CLOUDY    60  58  92 W3        29.97R
$$
MIZ004>006-011>014-085-211200-
CENTRAL UPPER MICHIGAN

CITY           SKY/WX    TMP DP  RH WIND       PRES   REMARKS
MANISTIQUE     CLOUDY    59  59 100 N3        29.97S FOG
ESCANABA       CLOUDY    61  57  88 NE6       29.96S
MENOMINEE      CLOUDY    63  59  88 CALM      29.94S
$$
MIZ001>003-009>011-084-211200-
WESTERN UPPER MICHIGAN

CITY           SKY/WX    TMP DP  RH WIND       PRES   REMARKS
IRON MOUNTAIN  CLEAR     59  57  93 CALM      29.95S FOG
HOUGHTON       FOG       60  58  92 E5        29.96S VSB<1/4
COPPER HARBOR    N/A     55  54  96 CALM      29.95F
IRONWOOD       MOCLDY    54  54 100 CALM      29.93R VSB 3/4
$$

ABBREVIATIONS USED IN REMARKS
   TC - TEMPERATURE IN CELSIUS
  WCI - WIND CHILL INDEX
   HX - HEAT INDEX
  VSB - VISIBILITY




USA.gov is the U.S. government's official web portal to all federal, state and local government web resources and services.